Date,TemperatureHighF,TemperatureAvgF,TemperatureLowF,DewpointHighF,DewpointAvgF,DewpointLowF,HumidityHigh,HumidityAvg,HumidityLow,PressureMaxIn,PressureMinIn,WindSpeedMaxMPH,WindSpeedAvgMPH,GustSpeedMaxMPH,PrecipitationSumIn
2013-1-1,36,30,26,33,23,18,90,74,68,30.19,30.05,14,2,14,0.01
2013-1-2,28,26,22,22,19,15,86,74,66,30.33,30.16,15,2,16,0.00
2013-1-3,34,26,19,29,20,13,88,77,67,30.31,30.16,17,2,17,0.00
2013-1-4,35,32,30,28,23,19,82,70,55,30.29,30.12,20,5,20,0.00
2013-1-5,36,33,30,28,26,24,81,76,69,30.44,30.18,7,1,12,0.00
2013-1-6,39,37,36,34,32,28,90,82,73,30.29,30.02,17,2,17,0.15
2013-1-7,38,35,31,33,29,25,87,77,65,30.52,30.29,10,1,15,0.01
2013-1-8,42,35,27,30,27,23,84,72,59,30.40,30.32,6,1,13,0.00
2013-1-9,50,42,35,39,32,29,84,68,51,30.54,30.19,20,5,24,0.04
2013-1-10,43,36,28,36,30,26,93,78,65,30.70,30.35,4,0,5,0.00
2013-1-11,53,49,39,50,42,29,94,78,52,30.35,29.87,15,3,18,0.25
2013-1-12,62,55,49,55,52,47,95,88,77,30.08,29.94,12,1,12,0.01
2013-1-13,65,52,40,59,49,39,95,89,78,30.06,29.78,15,2,19,0.35
2013-1-14,40,34,31,39,28,23,95,79,71,30.54,30.06,17,2,19,0.00
2013-1-15,33,31,30,25,23,21,76,72,67,30.53,30.22,5,0,7,0.00
2013-1-16,38,35,31,30,26,22,82,71,58,30.23,29.95,15,1,20,0.00
2013-1-17,38,35,26,33,28,18,85,75,67,30.34,30.05,16,2,24,0.00
2013-1-18,37,29,22,22,17,10,72,61,52,30.58,30.16,18,3,21,0.00
2013-1-19,53,46,37,33,28,22,54,49,42,30.16,29.72,15,4,22,0.00
2013-1-20,51,32,25,35,20,13,73,62,51,30.25,29.68,28,8,34,0.00
2013-1-21,25,21,15,19,16,8,88,79,61,30.23,30.01,17,3,20,0.00
2013-1-22,16,13,11,10,6,2,83,72,65,30.36,30.14,25,8,25,0.00
2013-1-23,17,15,14,13,9,4,85,78,62,30.37,30.19,21,2,21,0.00
2013-1-24,22,19,15,17,11,6,87,70,54,30.68,30.19,11,1,14,0.04
2013-1-25,21,17,13,16,11,7,85,78,72,30.64,30.16,6,0,7,0.00
2013-1-26,28,24,19,24,20,16,89,82,73,30.55,30.18,6,0,9,0.04
2013-1-27,32,27,19,26,19,15,86,73,60,30.65,30.38,7,1,11,0.02
2013-1-28,51,41,30,49,38,26,96,92,86,30.37,29.98,15,2,20,0.46
2013-1-29,61,50,38,56,48,37,96,92,76,30.14,29.69,13,2,17,0.38
2013-1-30,65,59,39,56,53,36,94,81,69,29.69,29.18,27,4,28,0.56
2013-1-31,40,29,22,36,23,16,88,77,60,29.94,29.29,30,10,33,0.03
2013-2-1,24,20,17,18,14,9,88,76,60,30.39,29.93,21,5,24,0.00
2013-2-2,24,20,15,21,15,8,89,81,70,30.39,30.08,9,1,11,0.00
2013-2-3,24,22,21,21,18,14,89,86,75,30.09,29.95,15,2,17,0.00
2013-2-4,27,23,20,22,18,12,88,80,64,30.14,30.00,14,2,20,0.03
2013-2-5,30,26,20,24,21,16,89,84,73,30.04,29.94,6,0,7,0.07
2013-2-6,31,25,15,28,19,11,88,78,67,30.47,30.03,12,1,17,0.02
2013-2-7,44,31,16,31,23,12,88,72,47,30.43,29.98,14,1,15,0.07
2013-2-8,39,32,24,35,28,18,92,84,71,30.34,29.83,17,3,22,0.33
2013-2-9,29,24,19,22,20,16,89,81,75,30.54,30.35,10,1,12,0.01
2013-2-10,49,35,17,28,21,14,89,59,35,30.46,29.91,13,2,16,0.00
2013-2-11,54,42,36,45,34,28,91,75,49,29.96,29.69,26,7,32,0.00
2013-2-12,36,33,28,29,27,24,87,78,70,30.15,29.96,21,4,25,0.00
2013-2-13,36,32,26,29,26,23,88,81,71,30.02,29.85,7,0,9,0.00
2013-2-14,42,35,25,36,30,22,89,83,69,29.97,29.87,22,2,23,0.01
2013-2-15,40,34,28,31,26,20,83,73,63,30.21,29.93,19,3,23,0.00
2013-2-16,30,26,23,22,18,11,88,72,46,30.19,30.07,7,0,10,0.02
2013-2-17,24,21,16,20,15,9,88,78,64,30.37,30.06,12,1,14,0.00
2013-2-18,46,29,11,32,18,7,83,65,51,30.39,29.83,16,3,21,0.02
2013-2-19,48,35,22,39,29,18,91,81,57,30.01,29.65,25,6,27,0.19
2013-2-20,25,22,19,20,16,13,89,77,65,30.30,30.01,16,5,23,0.00
2013-2-21,25,23,21,19,17,14,81,77,72,30.50,30.29,17,2,17,0.00
2013-2-22,39,31,21,36,26,16,91,83,68,30.44,30.03,11,1,13,0.05
2013-2-23,39,35,32,36,30,25,96,80,68,30.07,29.98,13,2,16,0.02
2013-2-24,34,31,26,28,26,23,89,81,73,30.25,29.98,13,3,16,0.00
2013-2-25,41,33,21,30,26,19,91,75,57,30.34,30.25,4,1,5,0.00
2013-2-26,40,40,40,29,29,29,64,64,64,30.31,30.31,1,1,1,0.00
2013-2-27,40,40,40,29,29,29,64,64,64,30.31,30.31,1,1,1,0.00
2013-2-28,40,38,33,34,30,29,93,72,64,30.31,29.77,12,1,14,0.07
2013-3-1,33,30,27,30,25,22,88,82,78,30.12,29.94,7,1,13,0.00
2013-3-2,29,27,25,25,23,20,86,83,80,30.11,30.07,8,0,10,0.00
2013-3-3,30,27,26,25,22,19,89,82,71,30.13,30.05,16,2,16,0.01
2013-3-4,31,27,21,24,21,18,88,78,70,30.23,30.13,12,2,16,0.01
2013-3-5,35,28,22,29,24,19,90,85,72,30.24,29.86,13,1,21,0.00
2013-3-6,52,35,32,33,30,28,90,85,78,30.26,29.86,13,2,18,0.01
2013-3-7,36,34,33,34,32,28,93,90,84,30.45,30.25,7,1,9,0.02
2013-3-8,39,34,29,35,30,26,91,87,83,30.55,30.45,7,1,10,0.00
2013-3-9,47,35,24,37,30,22,93,82,54,30.54,30.21,10,1,10,0.01
2013-3-10,71,58,46,45,37,30,60,45,36,30.21,29.93,14,3,16,0.00
2013-3-11,61,56,45,50,42,36,93,60,41,29.94,29.64,17,3,20,0.64
2013-3-12,45,38,36,40,32,27,86,79,70,30.06,29.81,16,4,20,0.01
2013-3-13,36,32,28,29,26,20,91,79,59,30.21,29.97,19,4,22,0.03
2013-3-14,34,30,27,25,21,18,82,67,58,30.32,30.19,15,3,19,0.00
2013-3-15,38,35,27,34,30,22,93,82,69,30.19,29.95,16,2,20,0.02
2013-3-16,34,31,29,33,28,26,94,88,79,30.12,29.83,13,1,17,0.01
2013-3-17,34,31,28,27,24,20,89,74,61,30.37,30.12,12,1,12,0.09
2013-3-18,39,34,26,37,29,19,92,82,68,30.33,29.70,15,2,17,0.28
2013-3-19,40,33,28,38,27,21,93,78,67,30.03,29.77,20,6,28,0.02
2013-3-20,32,30,27,26,22,19,90,72,61,30.03,29.98,19,5,20,0.01
2013-3-21,31,27,23,28,22,14,90,79,63,29.99,29.93,16,4,20,0.00
2013-3-22,34,30,26,28,24,21,90,77,69,30.12,29.97,15,3,18,0.00
2013-3-23,39,32,24,31,26,20,87,80,61,30.19,30.09,7,1,11,0.01
2013-3-24,35,32,25,31,27,22,90,80,66,30.16,29.67,19,2,19,0.00
2013-3-25,37,34,32,34,31,28,93,88,78,29.90,29.60,19,3,22,0.11
2013-3-26,40,37,35,35,33,31,90,86,81,30.16,29.90,15,3,16,0.00
2013-3-27,42,37,35,34,32,30,93,82,63,30.24,30.14,17,3,19,0.10
2013-3-28,41,38,34,35,33,32,94,85,74,30.36,30.23,13,2,14,0.07
2013-3-29,46,40,32,35,32,26,86,72,52,30.35,30.29,15,2,17,0.00
2013-3-30,53,41,28,36,28,25,96,65,40,30.33,30.07,5,0,7,0.00
2013-3-31,56,49,40,46,36,27,89,63,46,30.07,29.71,11,1,13,0.05
2013-4-1,49,38,33,43,27,20,89,67,50,30.16,29.70,17,4,21,0.12
2013-4-2,39,34,30,28,21,17,72,59,45,30.29,30.16,17,4,22,0.00
2013-4-3,37,33,27,25,21,17,77,61,52,30.56,30.28,19,2,19,0.00
2013-4-4,54,36,26,29,20,15,78,55,23,30.50,30.05,8,1,11,0.00
2013-4-5,44,38,30,36,29,21,81,70,57,30.32,30.00,11,1,18,0.00
2013-4-6,55,40,25,35,25,21,86,60,28,30.40,30.00,9,1,13,0.00
2013-4-7,68,55,42,48,38,22,79,54,27,30.12,29.81,19,4,24,0.00
2013-4-8,74,29,42,52,-38,-100,79,19,37,30.14,29.83,17,2,20,0.63
2013-4-9,78,28,46,48,-23,-100,82,38,51,30.19,29.92,16,1,18,0.02
2013-4-10,52,45,40,50,42,38,96,90,75,30.08,29.87,13,1,20,1.34
2013-4-11,40,39,37,38,36,34,96,91,89,30.10,29.74,21,4,21,0.19
2013-4-12,48,42,39,46,37,33,93,84,67,29.83,29.55,19,4,21,0.32
2013-4-13,45,42,39,37,34,30,87,74,60,30.01,29.82,16,4,21,0.07
2013-4-14,45,41,33,35,32,29,85,70,58,30.15,30.01,12,1,12,0.00
2013-4-15,74,60,41,50,43,35,81,55,38,30.03,29.94,13,2,18,0.00
2013-4-16,66,56,49,59,50,46,91,80,61,30.21,29.92,16,2,18,0.26
2013-4-17,52,48,43,48,38,27,92,70,41,30.33,30.07,12,2,15,0.00
2013-4-18,86,68,44,62,53,37,90,62,34,30.12,29.62,18,3,23,0.00
2013-4-19,72,55,43,59,44,27,88,67,49,29.82,29.34,22,6,26,0.38
2013-4-20,43,39,35,32,27,23,86,63,50,30.44,29.81,22,4,23,0.09
2013-4-21,42,38,29,32,27,23,88,64,49,30.65,30.44,16,1,16,0.00
2013-4-22,63,49,37,39,31,24,73,50,33,30.50,30.23,12,2,14,0.00
2013-4-23,73,60,46,41,34,26,61,40,25,30.24,29.86,12,3,14,0.00
2013-4-24,66,49,37,53,41,34,89,76,34,30.15,29.68,19,3,19,0.56
2013-4-25,56,43,34,40,34,28,89,74,37,30.35,30.15,14,2,18,0.05
2013-4-26,53,44,32,40,33,26,91,68,42,30.49,30.34,8,0,11,0.01
2013-4-27,66,51,36,40,35,30,87,58,27,30.41,30.11,13,1,13,0.00
2013-4-28,64,58,49,54,46,37,88,67,43,30.12,29.87,13,2,16,0.16
2013-4-29,62,58,54,57,52,50,91,83,76,29.98,29.87,11,2,13,0.12
2013-4-30,75,65,56,57,54,50,90,70,42,30.12,29.97,14,2,14,0.00
2013-5-1,80,66,58,57,51,48,78,60,37,30.26,30.12,12,2,13,0.00
2013-5-2,77,66,58,49,39,30,57,37,24,30.31,30.16,12,2,14,0.00
2013-5-3,78,69,59,46,38,31,45,33,23,30.19,30.09,17,3,17,0.00
2013-5-4,73,62,53,46,40,32,70,44,25,30.17,30.08,13,2,13,0.00
2013-5-5,72,61,47,47,42,28,84,54,26,30.14,29.99,13,2,15,0.00
2013-5-6,69,60,52,50,37,23,63,43,21,30.08,29.99,11,2,14,0.00
2013-5-7,70,63,52,54,51,48,88,66,48,30.05,29.95,12,1,13,0.00
2013-5-8,70,62,54,57,53,49,90,73,57,29.98,29.92,6,1,11,0.14
2013-5-9,74,62,55,59,54,43,93,76,36,29.97,29.90,9,1,9,0.01
2013-5-10,75,64,49,62,55,44,91,75,50,29.93,29.72,10,1,13,0.54
2013-5-11,54,48,44,49,44,41,91,87,78,29.85,29.76,16,2,17,0.10
2013-5-12,50,45,37,41,33,27,86,64,51,30.06,29.85,20,5,25,0.00
2013-5-13,48,42,36,33,29,24,84,59,49,30.19,30.04,12,2,17,0.00
2013-5-14,56,48,35,39,34,28,85,60,45,30.17,29.81,11,2,14,0.00
2013-5-15,81,67,54,60,50,38,79,56,36,29.81,29.61,22,3,22,0.00
2013-5-16,75,62,49,53,46,37,91,61,29,29.98,29.72,14,1,14,0.00
2013-5-17,62,57,50,49,45,41,79,64,47,30.16,29.98,15,2,17,0.00
2013-5-18,70,62,54,53,48,44,80,61,43,30.16,30.05,14,2,16,0.00
2013-5-19,84,70,57,66,60,49,85,69,48,30.05,29.91,9,1,10,0.00
2013-5-20,88,76,64,70,64,59,85,69,45,29.97,29.80,6,1,9,0.00
2013-5-21,89,76,68,70,66,62,92,74,44,29.85,29.72,9,1,12,1.34
2013-5-22,86,76,65,69,63,58,92,69,42,29.77,29.63,13,1,15,0.29
2013-5-23,71,60,46,66,57,42,92,87,73,30.00,29.68,11,1,16,0.28
2013-5-24,48,45,43,42,37,33,87,73,63,30.30,30.00,15,2,15,0.00
2013-5-25,58,50,44,45,40,35,79,67,49,30.36,30.25,15,2,16,0.00
2013-5-26,62,52,41,45,41,36,88,67,39,30.32,30.23,8,1,10,0.00
2013-5-27,66,53,39,51,43,35,90,72,33,30.27,30.08,10,0,10,0.08
2013-5-28,78,64,53,70,60,49,92,86,68,30.08,29.84,9,1,9,0.87
2013-5-29,84,75,66,68,64,61,92,71,50,29.99,29.86,15,1,16,0.08
2013-5-30,86,75,66,74,66,61,90,74,47,30.11,29.99,12,0,13,0.18
2013-5-31,88,75,67,71,65,62,91,74,42,30.03,29.90,12,1,16,0.62
2013-6-1,85,73,67,72,66,61,92,81,59,29.92,29.71,11,2,13,1.28
2013-6-2,74,68,59,66,61,51,93,79,59,29.92,29.68,18,3,19,0.54
2013-6-3,61,55,49,52,46,42,85,71,54,30.08,29.92,13,1,13,0.00
2013-6-4,64,55,45,52,45,41,90,70,47,30.19,30.07,6,0,11,0.00
2013-6-5,68,59,49,55,49,46,91,70,45,30.17,29.94,14,2,20,0.00
2013-6-6,61,58,56,58,55,51,93,88,71,29.94,29.78,10,2,13,0.83
2013-6-7,60,57,55,57,54,53,94,91,86,29.88,29.82,8,1,13,0.03
2013-6-8,66,60,54,58,55,51,93,85,65,30.09,29.86,7,1,10,0.00
2013-6-9,74,64,51,60,54,48,93,74,49,30.15,29.97,9,1,11,0.00
2013-6-10,75,70,65,71,66,59,93,88,68,29.96,29.68,6,0,9,0.56
2013-6-11,74,66,63,66,62,60,94,88,72,29.85,29.71,10,2,14,0.02
2013-6-12,76,67,62,68,62,60,92,84,71,29.89,29.69,7,0,8,0.11
2013-6-13,68,64,59,66,62,57,93,92,84,29.82,29.39,9,1,13,1.33
2013-6-14,68,62,56,62,57,52,93,85,64,30.05,29.81,11,1,12,0.01
2013-6-15,78,65,49,61,54,47,93,70,38,30.10,29.94,6,0,8,0.00
2013-6-16,77,71,66,67,63,58,85,75,63,29.95,29.74,18,2,21,0.00
2013-6-17,80,71,60,66,62,57,90,75,48,29.95,29.84,10,1,16,0.30
2013-6-18,68,64,57,61,56,48,93,78,55,30.01,29.83,15,1,15,0.14
2013-6-19,70,62,52,58,51,44,90,71,43,30.17,30.01,9,1,12,0.00
2013-6-20,77,63,49,56,49,39,91,65,29,30.23,30.16,7,0,11,0.00
2013-6-21,83,70,54,62,56,50,89,65,41,30.23,30.09,6,0,7,0.00
2013-6-22,88,78,67,72,66,59,80,67,50,30.12,29.97,10,1,10,0.00
2013-6-23,86,78,69,72,68,66,89,72,54,30.06,29.96,7,1,10,0.00
2013-6-24,85,78,69,70,67,64,86,70,53,30.06,29.92,11,1,13,0.00
2013-6-25,84,74,68,71,67,64,92,80,61,29.95,29.81,16,2,20,0.57
2013-6-26,80,73,67,70,67,65,93,82,66,29.88,29.75,10,1,14,0.20
2013-6-27,76,71,68,71,68,66,93,89,77,29.75,29.62,6,1,10,2.91
2013-6-28,76,70,67,69,66,62,93,86,71,29.62,29.47,10,1,10,0.14
2013-6-29,76,69,66,66,64,63,93,85,69,29.67,29.47,6,0,9,0.19
2013-6-30,74,70,65,66,63,61,91,80,68,29.86,29.67,10,2,12,0.01
2013-7-1,71,68,66,65,64,62,90,85,77,29.99,29.83,17,3,18,0.02
2013-7-2,75,68,63,67,62,60,90,83,75,30.03,29.94,11,2,17,0.00
2013-7-3,86,74,64,76,68,61,93,84,65,30.09,30.02,7,0,7,0.39
2013-7-4,82,75,70,74,70,68,93,85,71,30.14,30.07,5,0,6,0.01
2013-7-5,79,73,70,73,68,66,93,85,72,30.10,30.05,10,1,12,0.30
2013-7-6,83,75,69,74,70,66,93,85,67,30.12,29.98,6,0,9,0.23
2013-7-7,78,73,70,71,68,65,93,84,71,30.03,29.94,11,1,12,0.01
2013-7-8,85,74,68,74,68,65,93,83,64,30.05,29.96,7,0,10,0.94
2013-7-9,82,75,70,75,71,68,94,88,71,30.01,29.87,7,1,10,0.10
2013-7-10,87,75,69,78,71,66,93,86,69,29.89,29.68,16,1,16,0.44
2013-7-11,74,71,68,68,61,58,89,72,63,30.00,29.86,7,1,9,0.00
2013-7-12,78,71,62,68,64,59,92,80,65,30.11,29.99,13,1,14,0.00
2013-7-13,80,72,62,71,65,58,90,78,63,30.19,30.09,12,1,12,0.00
2013-7-14,88,78,68,75,70,65,93,78,59,30.24,30.19,9,1,11,0.00
2013-7-15,87,79,72,76,72,69,92,80,66,30.27,30.20,6,1,10,0.00
2013-7-16,88,80,74,77,74,71,92,81,65,30.26,30.19,5,1,7,0.00
2013-7-17,89,82,74,78,74,72,92,78,61,30.23,30.10,7,1,12,0.00
2013-7-18,90,82,76,78,74,72,90,78,59,30.11,29.94,9,1,11,0.00
2013-7-19,93,83,71,77,73,66,89,72,51,29.94,29.73,13,2,16,0.22
2013-7-20,80,73,69,74,69,66,93,86,68,29.88,29.73,9,1,12,1.37
2013-7-21,81,74,67,72,67,62,93,79,59,29.95,29.87,10,1,13,0.00
2013-7-22,79,72,64,72,67,61,92,86,71,29.94,29.73,6,0,7,0.16
2013-7-23,82,72,66,72,68,59,94,85,65,29.77,29.61,9,1,14,0.47
2013-7-24,71,65,57,60,54,51,88,68,51,30.02,29.77,11,1,14,0.00
2013-7-25,76,65,53,58,53,49,90,68,43,30.08,30.01,10,1,12,0.00
2013-7-26,78,68,56,65,58,53,90,74,52,30.08,29.93,7,0,8,0.00
2013-7-27,71,67,64,67,63,59,90,86,79,29.94,29.76,4,0,6,0.17
2013-7-28,71,66,60,64,56,48,91,74,49,29.97,29.79,10,1,12,0.45
2013-7-29,72,64,58,60,56,51,89,76,55,30.16,29.96,11,1,12,0.03
2013-7-30,75,66,56,65,58,53,93,78,56,30.21,30.13,6,0,9,0.00
2013-7-31,82,69,59,67,62,56,91,78,55,30.13,29.87,6,0,7,0.00
2013-8-1,75,70,65,67,65,62,92,83,74,29.88,29.78,10,2,12,0.40
2013-8-2,77,69,61,65,61,57,92,77,53,29.93,29.83,7,1,11,0.00
2013-8-3,75,71,63,67,63,58,88,75,56,29.97,29.85,11,1,11,0.00
2013-8-4,73,68,62,62,57,50,89,69,54,30.09,29.96,11,2,12,0.00
2013-8-5,72,64,54,59,55,51,90,73,51,30.12,29.99,5,0,6,0.00
2013-8-6,83,70,59,66,60,55,88,72,44,30.00,29.92,5,0,5,0.00
2013-8-7,82,72,65,73,66,59,90,80,65,29.92,29.82,4,0,6,0.15
2013-8-8,82,74,70,74,70,67,93,87,77,29.93,29.86,6,0,8,0.01
2013-8-9,75,70,62,69,63,53,91,79,49,29.98,29.85,9,1,10,0.11
2013-8-10,75,69,62,62,58,54,88,68,50,30.10,29.97,7,1,10,0.00
2013-8-11,79,70,60,61,58,54,89,67,45,30.12,30.01,7,0,9,0.00
2013-8-12,72,68,63,68,63,58,90,85,78,30.03,29.79,5,0,7,0.04
2013-8-13,70,66,62,67,58,48,94,78,58,29.96,29.75,13,1,14,0.97
2013-8-14,70,64,59,56,52,48,78,65,51,30.13,29.95,11,1,13,0.00
2013-8-15,71,62,52,60,53,48,90,75,53,30.16,30.10,9,1,9,0.00
2013-8-16,76,64,52,62,55,50,92,75,50,30.18,30.11,6,0,7,0.00
2013-8-17,80,66,54,70,58,51,92,77,51,30.25,30.18,9,0,12,0.00
2013-8-18,78,68,58,68,61,55,91,79,61,30.21,30.10,6,0,10,0.00
2013-8-19,77,70,63,69,65,60,92,83,63,30.10,30.04,6,0,7,0.00
2013-8-20,81,71,62,68,62,58,89,75,50,30.14,30.05,6,1,9,0.00
2013-8-21,84,73,64,69,65,60,90,76,52,30.16,30.00,0,0,0,0.00
2013-8-22,80,73,67,71,67,64,91,83,68,30.03,29.93,10,1,15,0.00
2013-8-23,78,73,63,69,64,57,87,73,60,30.17,29.97,10,1,14,0.00
2013-8-24,78,67,56,61,57,52,89,72,48,30.31,30.17,9,0,9,0.00
2013-8-25,82,70,58,65,60,55,91,73,45,30.32,30.16,8,1,9,0.00
2013-8-26,86,74,65,70,64,59,91,73,46,30.16,29.93,13,1,14,0.53
2013-8-27,81,76,71,74,71,68,92,86,72,29.94,29.85,10,1,12,0.16
2013-8-28,81,74,70,78,71,67,94,91,85,29.93,29.76,6,0,10,0.62
2013-8-29,82,75,68,75,70,65,94,85,66,30.03,29.93,7,0,9,0.00
2013-8-30,86,75,65,73,68,63,93,82,61,29.99,29.73,6,0,10,0.00
2013-8-31,80,74,70,73,70,67,93,87,77,29.81,29.70,5,0,10,0.53
2013-9-1,83,73,66,74,69,64,93,89,71,29.79,29.72,0,0,0,0.30
2013-9-2,78,72,68,73,67,60,94,86,73,29.82,29.70,7,1,10,0.05
2013-9-3,69,64,60,60,57,54,87,76,67,30.00,29.82,9,1,12,0.00
2013-9-4,76,66,56,63,58,53,91,78,47,30.06,29.99,10,1,14,0.00
2013-9-5,70,66,62,64,53,45,83,62,48,30.21,29.99,8,1,10,0.00
2013-9-6,71,60,49,57,49,44,86,68,47,30.28,30.09,7,0,7,0.00
2013-9-7,79,67,55,68,58,49,88,75,49,30.09,29.87,6,0,6,0.01
2013-9-8,71,67,57,68,59,49,90,76,57,30.07,29.86,14,1,16,0.00
2013-9-9,77,65,53,71,60,49,89,83,68,30.07,29.94,0,0,0,0.08
2013-9-10,93,81,72,77,71,68,88,75,50,30.01,29.91,10,1,10,0.00
2013-9-11,91,81,73,79,72,67,89,76,47,30.04,29.89,7,0,14,0.00
2013-9-12,74,70,63,69,64,54,90,82,59,29.95,29.80,10,1,12,0.20
2013-9-13,64,60,55,57,50,42,83,71,61,30.07,29.82,12,1,14,0.08
2013-9-14,63,56,48,51,45,40,88,66,57,30.17,30.06,10,0,10,0.00
2013-9-15,70,59,48,58,52,45,90,78,57,30.16,30.04,0,0,0,0.04
2013-9-16,64,59,50,57,54,46,91,82,75,30.33,30.08,10,0,11,0.02
2013-9-17,66,54,42,53,46,39,90,77,45,30.43,30.24,11,0,12,0.00
2013-9-18,77,60,48,61,51,42,89,73,46,30.24,30.07,2,0,4,0.00
2013-9-19,77,67,60,67,61,55,91,83,68,30.09,29.96,0,0,1,0.00
2013-9-20,78,70,65,72,66,61,92,87,78,29.99,29.73,7,0,10,0.64
2013-9-21,70,64,60,67,61,53,93,88,75,29.78,29.62,7,1,13,1.35
2013-9-22,61,58,56,54,49,44,81,73,64,30.03,29.78,11,1,12,0.00
2013-9-23,58,54,44,47,44,41,90,70,59,30.16,30.03,6,0,8,0.00
2013-9-24,65,52,41,53,46,38,92,81,60,30.15,29.98,9,0,10,0.00
2013-9-25,71,55,42,57,49,40,96,80,55,30.01,29.92,7,0,10,0.00
2013-9-26,70,57,44,58,50,42,93,78,43,30.11,29.96,13,0,13,0.00
2013-9-27,69,59,49,58,53,47,93,81,59,30.22,30.11,12,1,13,0.00
2013-9-28,79,63,52,61,54,49,91,74,44,30.24,30.09,4,0,10,0.00
2013-9-29,73,64,54,63,56,49,86,77,65,30.09,29.96,4,0,6,0.00
2013-9-30,68,64,59,64,60,56,92,89,84,29.99,29.94,3,0,4,0.05
2013-10-1,74,64,57,65,60,54,94,86,69,30.04,29.94,6,0,10,0.00
2013-10-2,72,64,56,66,60,53,92,86,69,30.07,29.96,10,1,12,0.00
2013-10-3,76,64,54,68,61,52,92,88,74,30.07,29.96,0,0,0,0.40
2013-10-4,76,70,66,70,66,63,93,87,73,30.02,29.96,7,0,11,0.03
2013-10-5,78,69,64,72,66,62,93,90,76,30.03,29.91,10,0,13,0.81
2013-10-6,81,73,61,72,67,57,94,82,62,29.91,29.64,12,1,14,0.12
2013-10-7,60,56,51,57,49,44,92,79,61,30.09,29.68,14,2,18,0.98
2013-10-8,66,56,48,55,47,44,91,72,48,30.30,30.09,7,0,7,0.00
2013-10-9,71,57,47,53,47,42,88,73,37,30.34,30.23,9,0,11,0.01
2013-10-10,65,54,46,53,47,41,90,76,51,30.26,30.11,10,0,11,0.00
2013-10-11,71,56,46,58,49,43,93,80,50,30.13,30.07,9,0,11,0.00
2013-10-12,75,61,48,63,55,46,92,81,61,30.13,30.06,9,0,10,0.00
2013-10-13,70,65,60,62,59,53,91,82,72,30.28,30.10,5,0,9,0.01
2013-10-14,62,57,44,53,47,41,89,69,56,30.35,30.26,13,1,13,0.00
2013-10-15,71,57,43,62,52,41,93,86,71,30.26,29.89,4,0,5,0.00
2013-10-16,70,62,58,64,58,48,93,85,68,29.89,29.74,13,1,13,0.69
2013-10-17,64,54,49,51,48,46,90,82,59,29.89,29.73,7,1,11,0.25
2013-10-18,63,55,48,48,46,42,91,73,47,29.94,29.79,13,1,14,0.23
2013-10-19,53,49,43,47,45,40,91,85,77,29.89,29.71,7,0,13,1.20
2013-10-20,59,49,41,44,41,37,91,76,47,29.96,29.86,9,1,14,0.09
2013-10-21,65,55,48,52,44,40,88,67,41,29.95,29.80,9,1,13,0.08
2013-10-22,52,47,44,48,37,32,89,69,55,29.92,29.80,13,2,15,0.15
2013-10-23,48,43,38,42,36,27,92,79,48,29.89,29.77,11,1,14,0.93
2013-10-24,45,38,34,38,35,32,91,88,75,30.11,29.89,7,1,9,0.58
2013-10-25,48,45,39,39,35,31,88,70,60,30.28,30.11,13,2,17,0.01
2013-10-26,47,43,37,40,32,28,87,64,52,30.18,29.83,13,1,13,0.19
2013-10-27,50,45,38,38,35,32,86,68,54,30.07,29.92,13,2,14,0.00
2013-10-28,54,44,36,44,38,32,88,79,64,30.35,30.07,12,0,13,0.00
2013-10-29,54,45,34,39,35,30,88,71,48,30.43,30.26,7,0,9,0.00
2013-10-30,66,49,38,50,41,34,88,74,41,30.26,30.02,5,0,10,0.00
2013-10-31,67,61,56,61,57,50,92,87,76,30.02,29.27,13,1,14,0.65
2013-11-1,63,55,51,59,48,42,90,76,66,29.68,29.18,22,3,22,0.25
2013-11-2,51,48,44,46,44,39,91,86,80,30.02,29.64,12,1,14,0.65
2013-11-3,44,40,31,39,31,26,84,72,59,30.51,30.01,12,0,12,0.00
2013-11-4,46,38,30,26,23,19,77,57,35,30.58,30.40,6,0,8,0.00
2013-11-5,58,49,42,42,34,25,72,55,47,30.43,30.27,7,0,7,0.00
2013-11-6,67,57,48,57,44,32,89,64,49,30.26,29.85,17,2,20,0.23
2013-11-7,53,45,38,50,36,27,90,71,55,30.10,29.88,16,3,17,0.35
2013-11-8,45,41,36,36,30,27,88,65,52,30.27,30.06,16,2,19,0.13
2013-11-9,58,47,35,46,33,27,77,60,40,30.26,29.84,13,2,15,0.02
2013-11-10,55,48,44,45,36,31,77,63,54,30.24,29.86,20,5,23,0.03
2013-11-11,48,42,32,40,34,29,96,74,49,30.24,30.01,12,2,16,0.40
2013-11-12,37,34,32,30,24,16,90,68,49,30.48,30.20,16,2,16,0.16
2013-11-13,39,35,32,26,21,18,72,58,44,30.50,30.24,12,2,14,0.03
2013-11-14,52,40,30,24,22,18,66,48,30,30.26,30.08,11,1,12,0.03
2013-11-15,55,46,39,30,25,22,58,44,29,30.13,30.06,7,0,9,0.00
2013-11-16,60,52,41,50,41,30,76,67,57,30.20,29.90,11,1,11,0.00
2013-11-17,66,60,54,57,53,41,88,77,50,29.90,29.36,24,4,28,0.58
2013-11-18,55,46,39,42,35,24,72,66,55,30.08,29.49,24,8,29,0.00
2013-11-19,40,37,30,29,27,25,85,65,58,30.44,30.08,12,1,15,0.00
2013-11-20,49,37,27,27,21,14,95,57,26,30.50,30.33,10,1,12,0.00
2013-11-21,45,41,39,40,31,16,93,69,38,30.40,30.20,12,2,13,0.19
2013-11-22,49,44,38,47,41,28,92,87,69,30.30,30.09,11,2,21,0.15
2013-11-23,38,32,24,30,22,9,82,65,50,30.39,30.19,22,5,23,0.00
2013-11-24,27,25,22,18,14,10,78,62,53,30.53,30.39,21,4,29,0.00
2013-11-25,35,28,20,26,16,11,83,63,39,30.47,30.17,12,2,16,0.00
2013-11-26,36,34,32,32,28,21,91,80,55,30.17,29.84,7,0,7,0.00
2013-11-27,37,32,27,32,24,18,91,75,64,30.12,29.78,17,4,21,0.03
2013-11-28,30,28,26,24,20,17,85,72,63,30.43,30.12,14,2,15,0.00
2013-11-29,32,28,23,28,23,18,88,80,71,30.69,30.43,4,0,4,0.05
2013-11-30,39,32,23,28,23,17,79,69,58,30.66,30.18,13,2,14,0.05
2013-12-1,41,37,33,32,29,26,81,74,67,30.18,29.98,5,0,6,0.08
2013-12-2,40,36,29,36,31,26,88,82,75,29.98,29.88,4,0,6,0.01
2013-12-3,45,35,26,39,30,23,96,82,68,29.95,29.88,5,0,6,0.00
2013-12-4,58,51,39,47,43,35,86,73,64,29.96,29.75,11,1,12,0.00
2013-12-5,61,50,35,54,43,31,88,77,68,30.12,29.71,19,4,23,0.07
2013-12-6,36,34,28,34,27,23,96,76,63,30.34,30.09,9,1,14,0.09
2013-12-7,31,27,24,25,18,15,82,69,61,30.62,30.34,11,1,15,0.00
2013-12-8,31,27,23,25,19,16,80,70,58,30.62,30.08,8,0,12,0.00
2013-12-9,36,33,29,33,27,19,90,78,67,30.13,29.92,19,3,20,0.02
2013-12-10,30,27,23,20,15,5,80,61,35,30.21,29.98,25,5,26,0.01
2013-12-11,28,24,20,22,17,9,87,74,62,30.42,30.21,17,3,20,0.00
2013-12-12,22,19,16,13,8,1,83,63,40,30.44,30.22,17,3,18,0.00
2013-12-13,30,26,21,23,17,10,82,69,61,30.30,30.19,11,1,13,0.00
2013-12-14,34,28,23,31,25,20,91,88,80,30.31,29.67,8,0,10,0.00
2013-12-15,34,27,20,31,23,16,91,86,76,30.02,29.65,14,2,16,0.00
2013-12-16,23,18,8,20,14,4,88,84,76,30.19,30.02,6,0,9,0.00
2013-12-17,29,26,19,26,22,14,88,83,75,30.05,29.93,13,1,17,0.00
2013-12-18,31,28,26,26,22,18,87,78,69,30.14,30.01,11,2,17,0.00
2013-12-19,47,38,27,35,28,19,74,66,56,30.03,29.94,11,1,13,0.47
2013-12-20,54,46,42,51,42,34,91,85,69,29.95,29.77,9,1,12,0.39
2013-12-21,56,45,38,53,43,36,92,91,87,29.83,29.57,11,1,16,1.67
2013-12-22,62,45,35,56,42,33,93,88,76,29.98,29.43,19,4,27,0.38
2013-12-23,39,35,31,37,30,22,91,82,65,30.32,29.98,14,3,16,0.00
2013-12-24,31,24,19,24,17,10,88,75,63,30.55,30.28,21,3,21,0.00
2013-12-25,28,21,13,21,14,8,84,72,61,30.55,30.19,12,0,13,0.00
2013-12-26,32,29,24,28,23,18,90,78,69,30.34,30.09,17,3,22,0.00
2013-12-27,38,33,26,31,27,19,86,78,71,30.34,30.16,9,1,10,0.06
2013-12-28,52,44,37,36,32,29,78,63,51,30.16,29.97,13,1,15,0.03
2013-12-29,46,41,29,37,31,25,88,67,50,29.96,29.68,13,2,20,0.01
2013-12-30,29,21,19,26,15,11,88,76,69,30.29,29.93,13,1,17,0.00
2013-12-31,23,21,19,19,16,12,88,80,69,30.33,30.06,21,3,23,0.00
2014-1-1,23,22,20,19,18,17,88,85,81,30.40,30.19,9,1,12,0.00
2014-1-2,24,19,12,20,16,8,96,88,84,30.19,29.91,20,3,26,0.00